Time,TemperatureF,DewpointF,PressureIn,WindDirection,WindDirectionDegrees,WindSpeedMPH,WindSpeedGustMPH,Humidity,HourlyPrecipIn,Conditions,Clouds,dailyrainin,SoftwareType,DateUTC
2013-02-20 00:05:00,30.8,29.0,29.90,WSW,248,0.0,1.0,91,0.00,,,0.00,weatherlink.com 1.10,2013-02-20 00:05:00,
2013-02-20 00:20:00,30.6,28.0,29.90,WSW,248,0.0,1.0,91,0.00,,,0.00,weatherlink.com 1.10,2013-02-20 00:20:00,
2013-02-20 00:35:00,30.3,28.0,29.90,WSW,248,0.0,1.0,91,0.00,,,0.00,weatherlink.com 1.10,2013-02-20 00:35:00,
2013-02-20 00:50:00,31.3,29.0,29.90,SE,130,0.0,1.0,92,0.00,,,0.00,weatherlink.com 1.10,2013-02-20 00:50:00,
2013-02-20 01:05:00,31.7,29.0,29.90,ESE,103,0.0,0.0,90,0.00,,,0.00,weatherlink.com 1.10,2013-02-20 01:05:00,
2013-02-20 01:21:00,35.2,34.0,29.90,ESE,110,3.0,5.0,94,0.00,,,0.00,weatherlink.com 1.10,2013-02-20 01:21:00,
2013-02-20 01:36:00,38.9,36.0,29.90,East,82,2.0,4.0,88,0.00,,,0.00,weatherlink.com 1.10,2013-02-20 01:36:00,
2013-02-20 01:51:00,39.3,36.0,29.90,ESE,122,2.0,6.0,86,0.00,,,0.00,weatherlink.com 1.10,2013-02-20 01:51:00,
2013-02-20 02:06:00,39.5,34.0,29.90,West,264,0.0,3.0,81,0.00,,,0.00,weatherlink.com 1.10,2013-02-20 02:06:00,
2013-02-20 02:21:00,35.5,31.0,29.90,West,264,0.0,0.0,84,0.00,,,0.00,weatherlink.com 1.10,2013-02-20 02:21:00,
2013-02-20 02:36:00,37.7,34.0,29.90,NNE,31,1.0,3.0,87,0.00,,,0.00,weatherlink.com 1.10,2013-02-20 02:36:00,
2013-02-20 02:51:00,37.7,34.0,29.90,NE,37,1.0,3.0,86,0.00,,,0.00,weatherlink.com 1.10,2013-02-20 02:51:00,
2013-02-20 03:06:00,37.1,33.0,29.89,NE,47,1.0,3.0,85,0.00,,,0.00,weatherlink.com 1.10,2013-02-20 03:06:00,
2013-02-20 03:21:00,37.3,32.0,29.89,East,79,3.0,3.0,81,0.00,,,0.00,weatherlink.com 1.10,2013-02-20 03:21:00,
2013-02-20 03:36:00,37.4,32.0,29.89,ESE,118,1.0,3.0,82,0.00,,,0.00,weatherlink.com 1.10,2013-02-20 03:36:00,
2013-02-20 03:51:00,38.1,34.0,29.89,ESE,122,5.0,7.0,84,0.00,,,0.00,weatherlink.com 1.10,2013-02-20 03:51:00,
2013-02-20 04:06:00,38.3,34.0,29.89,SE,132,1.0,5.0,84,0.00,,,0.00,weatherlink.com 1.10,2013-02-20 04:06:00,
2013-02-20 04:21:00,38.2,34.0,29.89,ESE,113,1.0,3.0,85,0.00,,,0.00,weatherlink.com 1.10,2013-02-20 04:21:00,
2013-02-20 04:36:00,35.7,31.0,29.89,WSW,252,1.0,2.0,84,0.00,,,0.00,weatherlink.com 1.10,2013-02-20 04:36:00,
2013-02-20 04:51:00,34.2,31.0,29.89,ESE,117,0.0,0.0,88,0.00,,,0.00,weatherlink.com 1.10,2013-02-20 04:51:00,
2013-02-20 05:06:00,38.0,35.0,29.90,SSE,153,1.0,7.0,89,0.00,,,0.00,weatherlink.com 1.10,2013-02-20 05:06:00,
2013-02-20 05:21:00,39.9,36.0,29.90,ESE,112,4.0,9.0,86,0.00,,,0.00,weatherlink.com 1.10,2013-02-20 05:21:00,
2013-02-20 05:36:00,40.8,36.0,29.90,SE,144,6.0,10.0,84,0.00,,,0.00,weatherlink.com 1.10,2013-02-20 05:36:00,
2013-02-20 05:51:00,41.3,37.0,29.90,ESE,117,3.0,11.0,84,0.00,,,0.00,weatherlink.com 1.10,2013-02-20 05:51:00,
2013-02-20 06:06:00,41.3,37.0,29.90,SE,132,3.0,10.0,84,0.00,,,0.00,weatherlink.com 1.10,2013-02-20 06:06:00,
2013-02-20 06:21:00,41.3,37.0,29.90,SSE,160,4.0,11.0,84,0.00,,,0.00,weatherlink.com 1.10,2013-02-20 06:21:00,
2013-02-20 06:36:00,41.0,37.0,29.90,ESE,107,6.0,8.0,84,0.00,,,0.00,weatherlink.com 1.10,2013-02-20 06:36:00,
2013-02-20 06:51:00,40.5,37.0,29.91,East,82,2.0,4.0,86,0.00,,,0.00,weatherlink.com 1.10,2013-02-20 06:51:00,
2013-02-20 07:06:00,40.1,37.0,29.91,East,96,1.0,5.0,87,0.00,,,0.00,weatherlink.com 1.10,2013-02-20 07:06:00,
2013-02-20 07:21:00,40.3,37.0,29.90,ESE,102,0.0,5.0,86,0.00,,,0.00,weatherlink.com 1.10,2013-02-20 07:21:00,
2013-02-20 07:36:00,39.7,36.0,29.91,NNE,32,2.0,3.0,86,0.00,,,0.00,weatherlink.com 1.10,2013-02-20 07:36:00,
2013-02-20 07:51:00,40.3,37.0,29.91,SE,130,2.0,6.0,86,0.00,,,0.00,weatherlink.com 1.10,2013-02-20 07:51:00,
2013-02-20 08:06:00,40.6,37.0,29.91,South,174,4.0,7.0,85,0.00,,,0.00,weatherlink.com 1.10,2013-02-20 08:06:00,
2013-02-20 08:21:00,41.0,37.0,29.91,SE,127,3.0,7.0,85,0.00,,,0.00,weatherlink.com 1.10,2013-02-20 08:21:00,
2013-02-20 08:37:00,41.1,37.0,29.91,SE,127,4.0,6.0,85,0.00,,,0.00,weatherlink.com 1.10,2013-02-20 08:37:00,
2013-02-20 08:52:00,41.5,37.0,29.91,ESE,113,0.0,10.0,85,0.00,,,0.00,weatherlink.com 1.10,2013-02-20 08:52:00,
2013-02-20 09:07:00,41.8,38.0,29.91,SE,134,2.0,9.0,85,0.00,,,0.00,weatherlink.com 1.10,2013-02-20 09:07:00,
2013-02-20 09:22:00,42.1,38.0,29.91,SE,146,4.0,5.0,85,0.00,,,0.00,weatherlink.com 1.10,2013-02-20 09:22:00,
2013-02-20 09:37:00,42.6,38.0,29.91,SSW,198,1.0,9.0,84,0.00,,,0.00,weatherlink.com 1.10,2013-02-20 09:37:00,
2013-02-20 09:52:00,43.2,38.0,29.91,East,94,3.0,8.0,83,0.00,,,0.00,weatherlink.com 1.10,2013-02-20 09:52:00,
2013-02-20 10:07:00,43.5,39.0,29.91,SE,143,6.0,10.0,83,0.00,,,0.00,weatherlink.com 1.10,2013-02-20 10:07:00,
2013-02-20 10:22:00,43.6,38.0,29.91,NNW,327,5.0,12.0,82,0.00,,,0.00,weatherlink.com 1.10,2013-02-20 10:22:00,
2013-02-20 10:37:00,43.7,38.0,29.91,SE,130,9.0,16.0,81,0.00,,,0.00,weatherlink.com 1.10,2013-02-20 10:37:00,
2013-02-20 10:52:00,44.1,39.0,29.92,ESE,118,3.0,15.0,81,0.00,,,0.00,weatherlink.com 1.10,2013-02-20 10:52:00,
2013-02-20 11:08:00,44.1,38.0,29.92,SE,124,10.0,18.0,80,0.01,,,0.01,weatherlink.com 1.10,2013-02-20 11:08:00,
2013-02-20 11:22:00,44.3,39.0,29.92,SE,127,6.0,18.0,80,0.01,,,0.01,weatherlink.com 1.10,2013-02-20 11:22:00,
2013-02-20 11:37:00,44.2,38.0,29.93,SE,129,8.0,18.0,78,0.01,,,0.01,weatherlink.com 1.10,2013-02-20 11:37:00,
2013-02-20 11:52:00,44.6,38.0,29.94,SE,138,3.0,12.0,78,0.01,,,0.01,weatherlink.com 1.10,2013-02-20 11:52:00,
2013-02-20 12:07:00,44.9,38.0,29.95,SSE,163,9.0,13.0,77,0.00,,,0.01,weatherlink.com 1.10,2013-02-20 12:07:00,
2013-02-20 12:22:00,45.2,38.0,29.94,ESE,122,6.0,13.0,76,0.00,,,0.01,weatherlink.com 1.10,2013-02-20 12:22:00,
2013-02-20 12:37:00,45.8,38.0,29.94,SSW,211,5.0,14.0,75,0.00,,,0.01,weatherlink.com 1.10,2013-02-20 12:37:00,
2013-02-20 12:52:00,46.1,39.0,29.94,East,98,3.0,14.0,75,0.00,,,0.01,weatherlink.com 1.10,2013-02-20 12:52:00,
2013-02-20 13:07:00,45.8,38.0,29.94,South,188,6.0,10.0,75,0.00,,,0.01,weatherlink.com 1.10,2013-02-20 13:07:00,
2013-02-20 13:22:00,45.1,38.0,29.94,SE,141,6.0,13.0,75,0.00,,,0.01,weatherlink.com 1.10,2013-02-20 13:22:00,
2013-02-20 13:37:00,45.5,38.0,29.94,South,183,6.0,11.0,76,0.00,,,0.01,weatherlink.com 1.10,2013-02-20 13:37:00,
2013-02-20 13:52:00,44.9,38.0,29.94,ESE,111,4.0,12.0,76,0.00,,,0.01,weatherlink.com 1.10,2013-02-20 13:52:00,
2013-02-20 14:07:00,44.6,37.0,29.94,ESE,105,3.0,14.0,76,0.00,,,0.01,weatherlink.com 1.10,2013-02-20 14:07:00,
2013-02-20 14:22:00,44.7,38.0,29.94,SSE,149,4.0,10.0,77,0.00,,,0.01,weatherlink.com 1.10,2013-02-20 14:22:00,
2013-02-20 14:37:00,44.5,37.0,29.94,ESE,110,6.0,13.0,75,0.00,,,0.01,weatherlink.com 1.10,2013-02-20 14:37:00,
2013-02-20 14:52:00,44.3,37.0,29.94,SE,143,3.0,14.0,76,0.00,,,0.01,weatherlink.com 1.10,2013-02-20 14:52:00,
2013-02-20 15:07:00,44.4,37.0,29.94,ESE,107,3.0,17.0,75,0.00,,,0.01,weatherlink.com 1.10,2013-02-20 15:07:00,
2013-02-20 15:22:00,44.1,37.0,29.94,ESE,118,8.0,13.0,75,0.00,,,0.01,weatherlink.com 1.10,2013-02-20 15:22:00,
2013-02-20 15:37:00,43.8,36.0,29.94,ENE,57,5.0,15.0,75,0.00,,,0.01,weatherlink.com 1.10,2013-02-20 15:37:00,
2013-02-20 15:52:00,43.5,36.0,29.94,SE,134,5.0,12.0,74,0.00,,,0.01,weatherlink.com 1.10,2013-02-20 15:52:00,
2013-02-20 16:07:00,43.4,36.0,29.93,SE,141,3.0,18.0,75,0.00,,,0.01,weatherlink.com 1.10,2013-02-20 16:07:00,
2013-02-20 16:23:00,43.3,37.0,29.94,SE,124,6.0,15.0,77,0.00,,,0.01,weatherlink.com 1.10,2013-02-20 16:23:00,
2013-02-20 16:38:00,42.8,36.0,29.94,South,176,8.0,14.0,76,0.00,,,0.01,weatherlink.com 1.10,2013-02-20 16:38:00,
2013-02-20 16:53:00,42.5,36.0,29.94,East,82,9.0,16.0,77,0.00,,,0.01,weatherlink.com 1.10,2013-02-20 16:53:00,
2013-02-20 17:08:00,42.4,36.0,29.94,SSW,193,4.0,14.0,77,0.00,,,0.01,weatherlink.com 1.10,2013-02-20 17:08:00,
2013-02-20 17:23:00,42.4,35.0,29.94,SE,133,5.0,14.0,76,0.00,,,0.01,weatherlink.com 1.10,2013-02-20 17:23:00,
2013-02-20 17:38:00,42.2,35.0,29.94,SSE,168,3.0,14.0,77,0.00,,,0.01,weatherlink.com 1.10,2013-02-20 17:38:00,
2013-02-20 17:53:00,42.2,35.0,29.94,SE,124,8.0,16.0,77,0.00,,,0.01,weatherlink.com 1.10,2013-02-20 17:53:00,
2013-02-20 18:08:00,42.2,36.0,29.94,ESE,122,6.0,14.0,79,0.00,,,0.01,weatherlink.com 1.10,2013-02-20 18:08:00,
2013-02-20 18:23:00,42.2,36.0,29.94,South,189,7.0,13.0,78,0.00,,,0.01,weatherlink.com 1.10,2013-02-20 18:23:00,
2013-02-20 18:38:00,42.5,36.0,29.94,ESE,121,6.0,14.0,78,0.00,,,0.01,weatherlink.com 1.10,2013-02-20 18:38:00,
2013-02-20 18:53:00,42.6,37.0,29.95,SE,129,5.0,14.0,79,0.00,,,0.01,weatherlink.com 1.10,2013-02-20 18:53:00,
2013-02-20 19:08:00,42.7,37.0,29.95,ESE,116,4.0,15.0,80,0.00,,,0.01,weatherlink.com 1.10,2013-02-20 19:08:00,
2013-02-20 19:23:00,42.7,37.0,29.95,East,99,4.0,11.0,81,0.00,,,0.01,weatherlink.com 1.10,2013-02-20 19:23:00,
2013-02-20 19:53:00,42.7,37.0,29.96,ESE,114,9.0,11.0,80,0.00,,,0.01,weatherlink.com 1.10,2013-02-20 19:53:00,
2013-02-20 20:08:00,42.6,37.0,29.96,SSE,165,4.0,15.0,80,0.00,,,0.01,weatherlink.com 1.10,2013-02-20 20:08:00,
2013-02-20 20:23:00,42.5,37.0,29.96,ESE,113,4.0,12.0,81,0.00,,,0.01,weatherlink.com 1.10,2013-02-20 20:23:00,
2013-02-20 20:38:00,42.2,37.0,29.96,East,91,9.0,13.0,82,0.00,,,0.01,weatherlink.com 1.10,2013-02-20 20:38:00,
2013-02-20 20:53:00,41.9,37.0,29.96,NNW,348,5.0,15.0,81,0.00,,,0.01,weatherlink.com 1.10,2013-02-20 20:53:00,
2013-02-20 21:08:00,41.8,36.0,29.97,SSE,166,2.0,13.0,80,0.00,,,0.01,weatherlink.com 1.10,2013-02-20 21:08:00,
2013-02-20 21:23:00,41.6,36.0,29.97,SSE,152,4.0,13.0,80,0.00,,,0.01,weatherlink.com 1.10,2013-02-20 21:23:00,
2013-02-20 21:38:00,41.4,35.0,29.97,East,100,9.0,15.0,79,0.00,,,0.01,weatherlink.com 1.10,2013-02-20 21:38:00,
2013-02-20 21:53:00,41.1,35.0,29.98,SSE,154,6.0,15.0,78,0.00,,,0.01,weatherlink.com 1.10,2013-02-20 21:53:00,
2013-02-20 22:08:00,40.9,34.0,29.98,ENE,70,10.0,15.0,77,0.00,,,0.01,weatherlink.com 1.10,2013-02-20 22:08:00,
2013-02-20 22:23:00,40.7,34.0,29.98,SSW,193,6.0,13.0,78,0.00,,,0.01,weatherlink.com 1.10,2013-02-20 22:23:00,
2013-02-20 22:38:00,40.4,34.0,29.98,ESE,121,4.0,15.0,78,0.00,,,0.01,weatherlink.com 1.10,2013-02-20 22:38:00,
2013-02-20 22:53:00,40.1,34.0,29.98,SE,144,4.0,16.0,78,0.00,,,0.01,weatherlink.com 1.10,2013-02-20 22:53:00,
2013-02-20 23:08:00,40.0,34.0,29.98,SE,134,4.0,14.0,78,0.00,,,0.01,weatherlink.com 1.10,2013-02-20 23:08:00,
2013-02-20 23:23:00,39.9,34.0,29.98,ESE,110,7.0,13.0,78,0.00,,,0.01,weatherlink.com 1.10,2013-02-20 23:23:00,
2013-02-20 23:38:00,39.7,33.0,29.98,SE,146,7.0,14.0,78,0.00,,,0.01,weatherlink.com 1.10,2013-02-20 23:38:00,
2013-02-20 23:53:00,39.6,33.0,29.98,ESE,117,10.0,14.0,77,0.00,,,0.01,weatherlink.com 1.10,2013-02-20 23:53:00,